This demonstration page uses our WeatherBlox Daily Observations layout. Learn more.

Left ArrowRight Arrow

Hourly Observations for August 26, 2019

Temp ( °F °C ) Dew Point ( °F °C ) Humidity (%) Winds ( mph kmh ) Pressure ( in mb ) Visibility ( mi km ) Precip ( " mm )
12:56 am 00:56 Cloudy 68 20 64 18 88 88 ESE 8 13 29.81 1010 10 16 0.00 0.00
1:11 am 01:11 Cloudy N/A N/A N/A ESE 5 7 N/A 10 16 0.00 0.00
1:56 am 01:56 Cloudy 68 20 64 18 88 88 ESE 8 13 29.81 1010 10 16 0.00 0.00
2:26 am 02:26 Mostly Cloudy N/A N/A N/A ESE 8 13 N/A 10 16 0.00 0.00
2:56 am 02:56 Mostly Cloudy 66 19 64 18 94 94 SE 7 11 29.78 1009 10 16 0.00 0.00
3:56 am 03:56 Cloudy 68 20 64 18 88 88 S 3 6 29.80 1009 10 16 0.00 0.00
4:56 am 04:56 Cloudy 68 20 63 17 83 83 E 3 6 29.81 1010 10 16 0.00 0.00
5:56 am 05:56 Cloudy 66 19 64 18 94 94 E 9 15 29.77 1008 10 16 0.00 0.00
6:56 am 06:56 Mostly Cloudy 66 19 64 18 94 94 ESE 6 9 29.77 1008 10 16 0.00 0.00
7:08 am 07:08 Cloudy with Light Rain 66 19 64 18 94 94 ESE 5 7 29.76 1008 5 8 0.00 0.00
7:56 am 07:56 Cloudy with Light Showers 66 19 64 18 94 94 SSE 7 11 29.82 1010 3 5 0.00 0.00
8:44 am 08:44 Cloudy with Thunderstorms 66 19 64 18 94 94 VRB 3 6 29.84 1010 6 10 0.00 0.00
8:57 am 08:57 Cloudy with Thunderstorms 66 19 64 18 94 94 VRB 5 7 29.85 1011 3 4 0.00 0.00
9:42 am 09:42 Windy with Rain Showers Likely 64 18 64 18 100 100 ESE 20 31 29.69 1005 6 10 0.00 0.00
9:56 am 09:56 Cloudy with Light Rain 66 19 64 18 94 94 WNW 17 28 29.75 1008 5 8 0.00 0.00
10:38 am 10:38 Mostly Cloudy 66 19 64 18 94 94 VRB 3 6 29.74 1007 10 16 0.00 0.00
10:56 am 10:56 Mostly Cloudy 68 20 66 19 94 94 VRB 3 6 29.75 1008 10 16 0.00 0.00
11:56 am 11:56 Cloudy 72 22 66 19 83 83 VRB 7 11 29.78 1008 10 16 0.00 0.00
12:56 pm 12:56 Mostly Cloudy 75 24 66 19 74 74 SW 7 11 29.78 1008 10 16 0.00 0.00
1:56 pm 13:56 Cloudy 75 24 66 19 74 74 W 8 13 29.78 1009 10 16 0.00 0.00
2:56 pm 14:56 Mostly Cloudy 77 25 68 20 74 74 WNW 8 13 29.77 1008 10 16 0.00 0.00
3:56 pm 15:56 Mostly Cloudy 79 26 66 19 65 65 WNW 10 17 29.77 1008 10 16 0.00 0.00
4:56 pm 16:56 Mostly Cloudy 81 27 66 19 62 62 NNW 7 11 29.77 1008 10 16 0.00 0.00
5:56 pm 17:56 Partly Cloudy 81 27 64 18 58 58 N 9 15 29.79 1009 10 16 0.00 0.00
6:56 pm 18:56 Partly Cloudy 79 26 63 17 58 58 N 7 11 29.80 1009 10 16 0.00 0.00
7:56 pm 19:56 Mostly Sunny 77 25 63 17 61 61 NW 5 7 29.82 1010 10 16 0.00 0.00
8:56 pm 20:56 Clear 73 23 64 18 74 74 WNW 3 6 29.86 1011 10 16 0.00 0.00
9:56 pm 21:56 Clear 72 22 63 17 73 73 NW 5 7 29.88 1012 10 16 0.00 0.00
10:56 pm 22:56 Clear 70 21 61 16 73 73 NW 7 11 29.88 1012 10 16 0.00 0.00
11:56 pm 23:56 Clear 68 20 59 15 73 73 WNW 7 11 29.89 1012 10 16 0.00 0.00

Powered by AerisWeather